FW9837 Weather Reports


time (UTC)temp
C
wind
direction
speed
KPH
gust
KPH
rain 1hr
cm
rain 24hr
cm
rain mn
cm
humidity
%
barometer
mb
20260506181824 8 342 4.8 16.1 0.05 2.54 2.54 95 1006.4
20260506181315 8 332 6.4 12.9 0.05 2.54 2.54 95 1006.3
20260506180805 8 9 6.4 12.9 0.03 2.51 2.51 95 1006.3
20260506180250 8 349 6.4 16.1 0.05 2.51 2.51 95 1006.4
20260506175737 8 336 8.0 16.1 0.05 2.51 2.51 95 1006.3
20260506175232 8 15 6.4 14.5 0.05 2.51 2.51 95 1006.3
20260506174733 8 346 8.0 19.3 0.05 2.51 2.51 95 1006.3
20260506174227 8 336 8.0 19.3 0.05 2.51 2.51 95 1006.2
20260506173730 8 305 6.4 17.7 0.05 2.49 2.49 95 1006.2
20260506173229 8 0 8.0 16.1 0.05 2.49 2.49 95 1006.2
20260506172729 8 348 8.0 16.1 0.05 2.49 2.49 95 1006.1
20260506172230 8 342 8.0 17.7 0.05 2.49 2.49 95 1006.1
20260506171728 8 327 8.0 17.7 0.05 2.49 2.49 95 1006.1
20260506171231 8 336 8.0 17.7 0.08 2.49 2.49 95 1006.1
20260506170730 8 13 8.0 20.9 0.05 2.49 2.49 95 1006.0
20260506170216 8 344 8.0 20.9 0.08 2.49 2.49 95 1006.0
20260506165701 8 315 8.0 16.1 0.10 2.49 2.49 95 1006.0
20260506165514 8 318 6.4 16.1 0.13 2.49 2.49 95 1006.0
20260506164707 8 334 6.4 14.5 0.15 2.49 2.49 95 1006.0
20260506164204 8 5 6.4 14.5 0.15 2.49 2.49 95 1006.0
20260506163703 8 355 6.4 14.5 0.15 2.46 2.46 95 1006.0
20260506163513 8 355 6.4 14.5 0.18 2.46 2.46 95 1006.0
20260506162705 8 355 8.0 17.7 0.23 2.46 2.46 95 1005.9
20260506162206 8 329 8.0 17.7 0.23 2.44 2.44 95 1005.9
20260506161715 8 338 8.0 17.7 0.23 2.44 2.44 95 1005.9
20260506161210 8 306 6.4 17.7 0.23 2.41 2.41 95 1005.8
20260506160648 8 344 8.0 17.7 0.23 2.41 2.41 95 1005.9
20260506160143 8 327 9.7 17.7 0.23 2.39 2.39 95 1005.9
20260506155632 8 339 9.7 17.7 0.20 2.39 2.39 95 1005.9
20260506155411 8 337 9.7 22.5 0.15 2.31 2.31 95 1005.9
20260506155321 8 345 11.3 19.3 0.18 2.36 2.36 95 1005.9
20260506154724 8 0 9.7 20.9 0.18 2.34 2.34 95 1005.9
20260506153632 8 11 11.3 24.1 0.15 2.31 2.31 95 1005.9
20260506153130 8 355 9.7 24.1 0.13 2.26 2.29 95 1005.9
20260506152630 8 10 9.7 19.3 0.10 2.24 2.26 95 1005.9
20260506152133 8 346 9.7 17.7 0.08 2.21 2.21 95 1005.9
20260506151626 8 338 9.7 19.3 0.05 2.21 2.21 95 1005.9
20260506151126 8 337 8.0 19.3 0.08 2.21 2.21 95 1005.9
20260506150627 8 5 8.0 19.3 0.05 2.18 2.21 95 1005.8
20260506150615 8 0 9.7 20.9 0.05 2.18 2.18 95 1005.8
20260506145626 8 13 9.7 20.9 0.08 2.18 2.18 95 1005.8
20260506145125 8 346 9.7 20.9 0.08 2.18 2.18 95 1005.7
20260506144638 8 313 9.7 20.9 0.05 2.16 2.16 95 1005.7
20260506144127 8 338 9.7 20.9 0.05 2.16 2.16 95 1005.7
20260506143627 8 355 8.0 19.3 0.08 2.16 2.16 95 1005.6
20260506143122 8 349 6.4 19.3 0.05 2.13 2.13 95 1005.7
20260506142611 8 337 6.4 12.9 0.05 2.13 2.13 95 1005.7
20260506142111 8 333 8.0 17.7 0.08 2.13 2.13 95 1005.7
20260506141611 8 5 8.0 17.7 0.08 2.13 2.13 95 1005.7
20260506141110 8 348 6.4 12.9 0.08 2.11 2.11 95 1005.6
20260506140611 8 335 6.4 14.5 0.10 2.11 2.11 95 1005.6
20260506140415 8 332 8.0 14.5 0.10 2.11 2.11 95 1005.6
20260506135610 8 321 6.4 12.9 0.10 2.11 2.11 95 1005.6
20260506135110 8 337 6.4 17.7 0.10 2.11 2.11 95 1005.5
20260506134611 8 355 8.0 17.7 0.13 2.11 2.11 95 1005.5
20260506134411 8 334 8.0 17.7 0.13 2.11 2.11 95 1005.5
20260506133553 8 355 6.4 14.5 0.13 2.08 2.08 95 1005.5
20260506133042 8 5 6.4 14.5 0.13 2.08 2.08 95 1005.5
20260506132843 8 321 6.4 14.5 0.10 2.06 2.06 95 1005.5
20260506132042 8 21 6.4 12.9 0.13 2.06 2.06 95 1005.6
20260506131542 8 337 4.8 12.9 0.13 2.06 2.06 95 1005.5
20260506131353 8 13 4.8 12.9 0.13 2.03 2.03 95 1005.5
20260506130543 8 355 6.4 12.9 0.13 2.03 2.03 95 1005.5
20260506130041 8 348 6.4 12.9 0.13 2.03 2.03 95 1005.4
20260506125542 8 350 6.4 12.9 0.13 2.01 2.01 95 1005.4
20260506125045 8 331 6.4 12.9 0.15 2.01 2.01 95 1005.4
20260506124853 8 340 6.4 12.9 0.15 1.98 1.98 95 1005.4
20260506124025 8 355 6.4 12.9 0.15 1.98 1.98 95 1005.4
20260506123515 8 340 4.8 11.3 0.15 1.96 1.96 95 1005.2
20260506123015 8 333 4.8 11.3 0.15 1.96 1.96 95 1005.3
20260506122516 8 336 6.4 11.3 0.15 1.93 1.96 95 1005.2
20260506122015 8 355 6.4 11.3 0.15 1.93 1.93 95 1005.1
20260506121514 8 334 4.8 11.3 0.15 1.93 1.93 95 1005.1
20260506121016 8 350 4.8 11.3 0.15 1.93 1.93 95 1005.1
20260506120516 8 5 4.8 11.3 0.15 1.91 1.91 95 1005.1
20260506120015 8 338 4.8 12.9 0.15 1.91 1.91 95 1005.2
20260506115516 8 5 4.8 12.9 0.13 1.88 1.88 95 1005.2
20260506115010 8 333 4.8 11.3 0.13 1.85 1.85 95 1005.2
20260506114502 8 350 6.4 11.3 0.10 1.83 1.83 95 1005.1
20260506113950 8 0 6.4 11.3 0.08 1.83 1.83 95 1005.2
20260506113449 8 335 6.4 11.3 0.08 1.83 1.83 95 1005.2
20260506112949 8 355 4.8 11.3 0.05 1.80 1.80 95 1005.2
20260506112746 8 342 3.2 11.3 0.05 1.80 1.80 95 1005.2
20260506111944 8 11 4.8 11.3 0.05 1.78 1.78 95 1005.2
20260506111446 7 339 3.2 11.3 0.05 1.78 1.78 95 1005.1
20260506110946 7 340 3.2 11.3 0.05 1.78 1.78 95 1005.0
20260506110446 7 355 6.4 14.5 0.05 1.75 1.75 95 1005.0
20260506105944 7 334 8.0 16.1 0.05 1.75 1.75 95 1004.9
20260506105446 7 336 8.0 16.1 0.05 1.75 1.75 95 1004.9
20260506105123 7 5 8.0 12.9 0.03 1.75 1.75 95 1005.0
20260506105040 7 5 8.0 14.5 0.03 1.75 1.75 95 1005.0
20260506103945 7 0 6.4 17.7 0.03 1.75 1.75 95 1004.9
20260506103445 7 45 6.4 19.3 0.03 1.75 1.75 95 1005.0
20260506102936 7 5 6.4 19.3 0.03 1.75 1.75 95 1004.9
20260506102429 7 5 6.4 16.1 0.03 1.75 1.75 95 1004.9
20260506101922 7 344 6.4 12.9 0.05 1.75 1.75 95 1004.9
20260506101422 7 15 6.4 12.9 0.03 1.73 1.73 95 1004.9
20260506100917 7 12 6.4 12.9 0.03 1.73 1.73 95 1004.9
20260506100741 7 9 6.4 12.9 0.03 1.73 1.73 95 1004.9
20260506100325 7 348 8.0 20.9 0.05 1.73 1.73 95 1004.7
20260506095731 7 20 8.0 20.9 0.05 1.73 1.73 95 1004.7
20260506094911 7 292 6.4 14.5 0.05 1.73 1.73 95 1004.8
20260506094411 7 49 8.0 14.5 0.05 1.73 1.73 95 1004.7
20260506093911 7 13 6.4 14.5 0.05 1.73 1.73 95 1004.7
20260506093413 7 17 6.4 12.9 0.05 1.73 1.73 95 1004.6
20260506093235 7 12 8.0 16.1 0.05 1.73 1.73 95 1004.6
20260506092406 7 322 9.7 17.7 0.05 1.73 1.73 95 1004.6
20260506091906 7 0 8.0 17.7 0.05 1.70 1.70 95 1004.6
20260506091519 7 335 8.0 14.5 0.05 1.68 1.68 95 1004.5
20260506091515 7 348 6.4 14.5 0.05 1.70 1.70 95 1004.5
20260506091506 7 342 6.4 11.3 0.05 1.70 1.70 95 1004.5
20260506091445 7 22 6.4 12.9 0.05 1.70 1.70 95 1004.6
20260506085406 7 0 8.0 16.1 0.05 1.68 1.68 95 1004.5
20260506084903 7 31 8.0 16.1 0.05 1.68 1.68 95 1004.5
20260506084401 7 342 8.0 16.1 0.05 1.68 1.68 95 1004.5
20260506084216 7 337 8.0 16.1 0.05 1.65 1.65 95 1004.5
20260506083359 7 337 8.0 16.1 0.05 1.65 1.65 95 1004.4
20260506083345 7 5 8.0 16.1 0.08 1.65 1.65 95 1004.4
20260506082630 7 18 8.0 14.5 0.08 1.65 1.65 95 1004.4
20260506081856 7 9 8.0 14.5 0.08 1.65 1.65 95 1004.4
20260506081721 7 30 8.0 17.7 0.08 1.65 1.65 95 1004.3
20260506080853 7 319 8.0 17.7 0.10 1.65 1.65 95 1004.2
20260506080353 7 355 8.0 16.1 0.10 1.65 1.65 95 1004.3
20260506072838 7 5 8.0 16.1 0.15 1.57 1.60 95 1004.1
20260506072332 7 355 6.4 16.1 0.15 1.57 1.57 95 1004.2
20260506071823 7 5 8.0 19.3 0.15 1.55 1.57 95 1004.2
20260506071311 7 355 8.0 19.3 0.18 1.55 1.55 94 1004.2
20260506070805 7 327 8.0 20.9 0.18 1.55 1.55 94 1004.2
20260506070751 7 336 8.0 20.9 0.18 1.52 1.52 94 1004.1
20260506070410 7 11 9.7 20.9 0.20 1.55 1.55 94 1004.2
20260506062006 7 331 8.0 16.1 0.20 1.42 1.40 94 1004.0
20260506061204 7 339 8.0 16.1 0.20 1.40 1.37 94 1003.9
20260506060659 8 323 8.0 14.5 0.18 1.37 1.37 94 1003.9
20260506060147 8 343 8.0 14.5 0.20 1.37 1.35 94 1003.8
20260506051052 8 334 6.4 14.5 0.23 1.19 1.17 94 1003.8
20260506050546 8 336 4.8 14.5 0.23 1.17 1.17 94 1003.8
20260506045040 8 349 6.4 11.3 0.23 1.14 1.12 94 1003.8
20260506044539 8 9 4.8 11.3 0.23 1.17 1.09 94 1003.8
20260506044345 8 14 6.4 11.3 0.23 1.12 1.09 94 1003.8
20260506043540 8 5 6.4 11.3 0.23 1.12 1.07 94 1003.8
20260506043038 8 11 6.4 12.9 0.20 1.09 1.02 94 1003.8
20260506042537 8 0 6.4 12.9 0.20 1.07 0.99 94 1003.9
20260506042038 8 15 6.4 11.3 0.20 1.04 0.99 94 1003.8
20260506041535 8 355 6.4 11.3 0.20 1.02 0.97 94 1003.9
20260506041035 8 348 6.4 12.9 0.20 0.99 0.94 94 1003.9
20260506040536 8 350 4.8 12.9 0.18 0.99 0.91 94 1003.9
20260506040034 8 342 4.8 12.9 0.18 0.97 0.89 94 1004.0
20260506035842 8 13 4.8 11.3 0.18 0.94 0.89 94 1004.0
20260506035348 8 343 4.8 12.9 0.18 0.94 0.89 94 1004.0
20260506034533 8 355 6.4 12.9 0.18 0.91 0.86 94 1004.1
20260506034036 8 339 6.4 11.3 0.18 0.89 0.84 94 1004.1
20260506033534 8 342 4.8 11.3 0.15 0.89 0.81 94 1004.1
20260506033139 8 5 6.4 11.3 0.18 0.86 0.79 94 1004.2
20260506033112 8 9 6.4 11.3 0.18 0.89 0.81 94 1004.2
20260506032014 8 5 6.4 14.5 0.15 0.84 0.79 94 1004.2
20260506031504 8 355 6.4 16.1 0.15 0.81 0.76 94 1004.2
20260506031001 8 317 6.4 16.1 0.15 0.79 0.74 94 1004.3
20260506030455 8 344 6.4 14.5 0.15 0.79 0.74 94 1004.3
20260506025950 8 5 8.0 14.5 0.15 0.79 0.71 94 1004.3
20260506025438 8 347 6.4 12.9 0.15 0.76 0.71 94 1004.4
20260506024938 8 11 6.4 12.9 0.15 0.76 0.71 94 1004.4
20260506024801 8 331 8.0 14.5 0.15 0.74 0.69 94 1004.4
20260506023921 8 0 8.0 14.5 0.15 0.71 0.66 94 1004.5
20260506023421 8 26 8.0 12.9 0.20 0.71 0.66 94 1004.4
20260506023305 9 348 6.4 12.9 0.20 0.71 0.64 94 1004.5
20260506022409 9 5 6.4 12.9 0.20 0.69 0.61 94 1004.5
20260506021901 9 355 6.4 12.9 0.23 0.69 0.61 94 1004.5
20260506021359 9 318 6.4 12.9 0.23 0.69 0.61 94 1004.6
20260506020849 9 350 6.4 12.9 0.25 0.66 0.58 94 1004.6
20260506020339 9 336 6.4 12.9 0.28 0.66 0.58 94 1004.6
20260506020151 9 340 6.4 11.3 0.30 0.66 0.58 94 1004.6
20260506015328 9 0 6.4 11.3 0.33 0.64 0.56 94 1004.7
20260506015126 10 346 4.8 9.7 0.33 0.61 0.53 94 1004.7
20260506014320 10 351 4.8 9.7 0.30 0.61 0.53 94 1004.7
20260506013814 10 355 6.4 14.5 0.30 0.61 0.51 94 1004.7
20260506013618 10 343 8.0 14.5 0.28 0.56 0.46 94 1004.7
20260506012757 10 338 6.4 12.9 0.28 0.53 0.43 94 1004.7
20260506012357 10 348 6.4 11.3 0.28 0.51 0.41 94 1004.7
20260506012333 10 0 6.4 11.3 0.28 0.51 0.43 94 1004.8
20260506011240 10 342 4.8 11.3 0.23 0.46 0.36 94 1004.8
20260506010737 10 9 4.8 9.7 0.23 0.43 0.33 94 1004.8
20260506010232 10 19 4.8 11.3 0.20 0.38 0.30 94 1004.9
20260506010030 10 19 6.4 11.3 0.20 0.36 0.25 94 1004.9
20260506005318 10 22 6.4 11.3 0.18 0.33 0.23 94 1005.0
20260506005254 10 9 6.4 11.3 0.18 0.33 0.23 94 1004.9
20260506004205 10 11 6.4 11.3 0.15 0.30 0.20 94 1005.0
20260506003700 10 19 6.4 14.5 0.18 0.30 0.20 94 1005.0
20260506003514 10 10 6.4 14.5 0.15 0.28 0.18 94 1005.1
20260506002647 10 0 6.4 12.9 0.15 0.25 0.15 94 1005.1
20260506002137 10 347 6.4 11.3 0.15 0.23 0.15 94 1005.2
20260506001946 10 19 6.4 14.5 0.13 0.23 0.13 94 1005.2
20260506001128 10 9 6.4 14.5 0.10 0.20 0.10 94 1005.2
20260506000619 10 338 4.8 12.9 0.10 0.20 0.10 94 1005.3
20260506000120 10 19 6.4 11.3 0.08 0.18 0.08 93 1005.3
20260505235609 10 5 4.8 11.3 0.05 0.15 0.05 93 1005.4
20260505235104 10 11 4.8 9.7 0.05 0.15 0.05 93 1005.5
20260505234558 10 22 6.4 12.9 0.05 0.15 0.05 93 1005.5
20260505234052 10 5 6.4 12.9 0.03 0.15 0.05 93 1005.6
20260505233542 10 16 6.4 12.9 0.03 0.15 0.03 93 1005.6
20260505233036 10 19 4.8 11.3 0.03 0.15 0.03 94 1005.7
20260505232830 10 64 4.8 12.9 0.00 0.13 0.00 94 1005.7
20260505232028 10 0 4.8 12.9 0.00 0.13 0.00 94 1005.7
20260505231522 10 49 4.8 11.3 0.00 0.15 0.00 94 1005.7
20260505231024 10 14 4.8 11.3 0.00 0.15 0.00 94 1005.7
20260505230513 10 346 6.4 11.3 0.00 0.15 0.00 94 1005.7
20260505230000 10 61 6.4 12.9 0.00 0.15 0.00 94 1005.8
20260505225458 10 13 4.8 12.9 0.00 0.15 0.00 93 1005.9
20260505225259 10 320 3.2 12.9 0.00 0.15 0.00 93 1005.9
20260505224446 10 14 4.8 11.3 0.00 0.15 0.00 93 1005.9
20260505224233 10 26 6.4 12.9 0.00 0.15 0.00 93 1005.9
20260505223602 10 14 6.4 14.5 0.00 0.18 0.00 93 1005.9
20260505223532 10 15 6.4 12.9 0.00 0.15 0.00 93 1005.9
20260505222417 10 55 6.4 16.1 0.00 0.18 0.00 93 1006.0
20260505221916 10 36 6.4 16.1 0.00 0.18 0.00 93 1006.0
20260505221502 10 19 8.0 16.1 0.00 0.20 0.20 93 1006.1
20260505221454 10 19 8.0 14.5 0.00 0.20 0.00 93 1006.1
20260505221448 10 18 6.4 12.9 0.00 0.18 0.00 93 1006.1
20260505221434 10 350 6.4 12.9 0.00 0.18 0.00 93 1006.0
20260505215344 10 5 8.0 16.1 0.00 0.23 0.20 93 1006.1
20260505214839 10 22 8.0 16.1 0.00 0.23 0.20 93 1006.1
20260505214328 11 16 8.0 14.5 0.00 0.23 0.20 93 1006.2
20260505213827 11 355 8.0 14.5 0.00 0.23 0.20 93 1006.3
20260505213316 11 5 8.0 20.9 0.00 0.23 0.20 93 1006.3
20260505212815 11 10 8.0 20.9 0.00 0.23 0.20 93 1006.3
20260505212309 11 20 8.0 16.1 0.00 0.23 0.20 93 1006.3
20260505211759 11 19 6.4 14.5 0.00 0.25 0.20 93 1006.3
20260505211256 11 38 8.0 16.1 0.00 0.25 0.20 93 1006.3
20260505210747 11 5 8.0 16.1 0.00 0.25 0.20 93 1006.3
20260505210245 11 44 9.7 20.9 0.00 0.25 0.20 93 1006.3
20260505205737 11 343 8.0 20.9 0.00 0.28 0.20 93 1006.3
20260505205236 11 43 6.4 17.7 0.00 0.28 0.20 93 1006.3
20260505204728 11 40 4.8 11.3 0.00 0.28 0.20 93 1006.3
20260505204220 11 5 4.8 9.7 0.00 0.28 0.20 93 1006.4
20260505203715 11 48 4.8 11.3 0.00 0.30 0.20 93 1006.4
20260505203534 11 28 6.4 14.5 0.00 0.30 0.20 93 1006.3
20260505202916 11 336 6.4 11.3 0.00 0.30 0.20 93 1006.4
20260505202702 11 11 6.4 14.5 0.00 0.30 0.20 93 1006.3
20260505201647 11 346 6.4 11.3 0.00 0.30 0.20 93 1006.4
20260505201521 11 28 4.8 11.3 0.00 0.30 0.20 93 1006.3
20260505200637 11 0 6.4 14.5 0.00 0.30 0.20 93 1006.3
20260505200129 11 345 8.0 14.5 0.00 0.30 0.20 93 1006.3
20260505195626 11 74 6.4 12.9 0.00 0.30 0.20 93 1006.2
20260505195113 11 0 4.8 11.3 0.00 0.30 0.20 93 1006.2
20260505194618 12 28 4.8 12.9 0.00 0.33 0.20 92 1006.3
20260505194610 11 5 6.4 16.1 0.00 0.30 0.20 92 1006.3
20260505194602 11 30 4.8 9.7 0.00 0.30 0.20 92 1006.3
20260505194238 11 5 6.4 12.9 0.00 0.30 0.20 92 1006.3
20260505194201 11 9 6.4 16.1 0.00 0.30 0.20 92 1006.3
20260505192037 12 21 4.8 12.9 0.00 0.33 0.20 92 1006.2
20260505191530 12 32 4.8 11.3 0.00 0.33 0.20 92 1006.3
20260505191339 12 43 4.8 11.3 0.00 0.33 0.20 92 1006.3
20260505190822 12 63 4.8 11.3 0.00 0.36 0.20 92 1006.2
20260505190016 12 29 3.2 8.0 0.00 0.36 0.20 92 1006.2
20260505185805 12 29 3.2 8.0 0.00 0.36 0.20 92 1006.3
20260505185005 12 56 1.6 6.4 0.00 0.36 0.20 92 1006.3
20260505184455 12 44 3.2 8.0 0.00 0.36 0.20 92 1006.3
20260505183948 12 42 3.2 8.0 0.00 0.36 0.20 92 1006.3
20260505183449 12 82 3.2 8.0 0.00 0.36 0.20 92 1006.4
20260505182936 12 82 3.2 9.7 0.00 0.36 0.20 92 1006.4